Flight Track Log - Related Links

Times and Time Zones

All times are in EDT time to prevent confusion due to time zone crossing. See the DAL3802 flight status page for this flight to view local times or setup timezone preferences in your user account.

Time Position Orientation Groundspeed Altitude Reporting Facility
EDT Latitude Longitude Course Direction KTS MPH feet Rate Location/Type
Thu 09:42:32 PM 42.2292 -83.3342 82° East 161 185 1,300  Level Cleveland Center
Thu 09:43:08 PM 42.2586 -83.3214 18° North 204 235 2,500 2,165 Climbing Cleveland Center
Thu 09:44:09 PM 42.3161 -83.2761 30° Northeast 258 297 4,800 2,195 Climbing Cleveland Center
Thu 09:45:11 PM 42.3389 -83.1872 71° East 285 328 7,000 2,508 Climbing Cleveland Center
Thu 09:46:00 PM 42.3147 -82.7599 75° East  Level FlightAware Approximate
Thu 09:46:11 PM 42.3411 -83.0917 88° East 285 328 9,900  Level Cleveland Center
Thu 09:47:00 PM 42.3308 -82.6088 82° East  Level FlightAware Approximate
Thu 09:47:11 PM 42.3458 -82.9739 87° East 290 334 11,400  Level Cleveland Center
Thu 09:48:11 PM 42.3503 -82.8447 87° East 317 365 13,400 2,050 Climbing Cleveland Center
Thu 09:49:11 PM 42.3572 -82.7131 86° East 336 387 15,500 1,850 Climbing Cleveland Center
Thu 09:50:11 PM 42.3617 -82.5756 87° East 355 409 17,100 1,450 Climbing Cleveland Center
Thu 09:51:11 PM 42.3681 -82.4353 86° East 367 422 18,400 1,250 Climbing Cleveland Center
Thu 09:52:11 PM 42.3619 -82.2944 93° East 367 422 19,600 1,300 Climbing Cleveland Center
Thu 09:53:11 PM 42.3539 -82.1256 94° East 390 449 21,000 1,350 Climbing Cleveland Center
Thu 09:54:11 PM 42.3497 -81.9739 92° East 403 464 22,300 1,150 Climbing Cleveland Center
Thu 09:55:11 PM 42.3408 -81.8247 95° East 403 464 23,300 850 Climbing Cleveland Center
Thu 09:56:11 PM 42.3361 -81.6897 93° East 403 464 24,000 750 Climbing Cleveland Center
Thu 09:57:11 PM 42.3292 -81.5297 93° East 410 472 24,800 800 Climbing Cleveland Center
Thu 09:58:11 PM 42.3219 -81.3722 93° East 416 479 25,600 800 Climbing Cleveland Center
Thu 09:59:11 PM 42.3125 -81.2122 95° East 427 491 26,400 694 Climbing Cleveland Center
Thu 10:00:12 PM 42.3050 -81.0547 94° East 427 491 27,000 298 Climbing Cleveland Center
Thu 10:01:12 PM 42.2953 -80.8722 94° East 432 497 27,000  Level Cleveland Center
Thu 10:02:12 PM 42.2850 -80.6983 95° East 450 518 27,000  Level Cleveland Center
Thu 10:03:12 PM 42.2767 -80.5269 94° East 450 518 27,000  Level Cleveland Center
Thu 10:04:12 PM 42.2683 -80.3531 94° East 464 534 27,000  Level Cleveland Center
Thu 10:05:11 PM 42.2572 -80.1764 95° East 464 534 27,000  Level Cleveland Center
Thu 10:06:12 PM 42.2378 -79.9997 98° East 469 540 27,000  Level Cleveland Center
Thu 10:07:12 PM 42.2097 -79.8292 102° East 469 540 27,000  Level Cleveland Center
Thu 10:08:12 PM 42.1814 -79.6556 102° East 469 540 27,000  Level Cleveland Center
Thu 10:09:11 PM 42.1547 -79.4825 102° East 469 540 27,000 -100 Level Cleveland Center
Thu 10:10:12 PM 42.1258 -79.3094 103° East 469 540 26,800 -595 Descending Cleveland Center
Thu 10:11:12 PM 42.0969 -79.1364 103° East 469 540 25,800 -908 Descending Cleveland Center
Thu 10:12:11 PM 42.0675 -78.9692 103° East 469 540 25,000 -400 Descending Cleveland Center
Thu 10:13:12 PM 42.0400 -78.7967 102° East 469 540 25,000  Level Cleveland Center
Thu 10:14:12 PM 42.0122 -78.6269 102° East 469 540 25,000 -450 Level Cleveland Center
Thu 10:15:12 PM 41.9819 -78.4575 103° East 469 540 24,100 -950 Descending Cleveland Center
Thu 10:16:12 PM 41.9517 -78.2881 103° East 469 540 23,100 -550 Descending Cleveland Center
Thu 10:17:12 PM 41.9281 -78.1494 103° East 457 526 23,000 -30 Descending Cleveland Center
Thu 10:19:34 PM 41.8556 -77.7553 104° East 448 516 23,000  Level New York Center
Thu 10:20:35 PM 41.8275 -77.5906 103° East 448 516 23,000  Level New York Center
Thu 10:21:34 PM 41.7953 -77.4261 105° East 448 516 23,000 -450 Level New York Center
Thu 10:22:35 PM 41.7669 -77.2617 103° East 448 516 22,100 -992 Descending New York Center
Thu 10:23:35 PM 41.7397 -77.1061 103° East 442 509 21,000 -1,373 Descending New York Center
Thu 10:24:33 PM 41.7083 -76.9506 105° East 442 509 19,400 -1,576 Descending New York Center
Thu 10:25:33 PM 41.6789 -76.7950 104° East 437 503 17,900 -1,587 Descending New York Center
Thu 10:26:34 PM 41.6508 -76.6481 104° East 431 496 16,200 -1,869 Descending New York Center
Thu 10:27:35 PM 41.6258 -76.5236 105° East 375 432 14,100 -1,934 Descending New York Center
Thu 10:28:35 PM 41.6094 -76.4306 103° East 311 358 12,300 -1,700 Descending New York Center
Thu 10:29:35 PM 41.5911 -76.3347 104° East 274 315 10,700 -1,800 Descending New York Center
Thu 10:30:35 PM 41.5725 -76.2389 105° East 247 284 8,700 -1,785 Descending New York Center
Thu 10:31:36 PM 41.5536 -76.1517 106° East 247 284 7,100 -1,576 Descending New York Center
Thu 10:32:33 PM 41.5239 -76.0717 116° Southeast 241 277 5,600 -1,311 Descending New York Center
Thu 10:33:35 PM 41.4958 -75.9972 117° Southeast 247 284 4,500 -793 Descending New York Center
Thu 10:34:34 PM 41.4661 -75.9147 116° Southeast 247 284 4,000 -254 Descending New York Center
Thu 10:35:33 PM 41.4367 -75.8267 114° Southeast 247 284 4,000 50 Level New York Center
Thu 10:36:34 PM 41.4106 -75.7528 115° Southeast 237 273 4,100 98 Climbing New York Center

Login

Don't have an account? Register now (free) for customized features, flight alerts, and more!